JST411 YBCG-YSSY

Flight info

Callsign JST411
Flight time 1h 5m
Altitude 32000
Route GOMOL Q16 APAGI H91 IGDAM H652 BOREE
Aircraft A320/M-SDE3FGHIRWY/LB1

Departure

Time 2026-05-06 11:56
Airport Gold Coast Airport (YBCG)

Arrival

Time 2026-05-06 13:02
Airport Sydney Kingsford Smith International Airport (YSSY)
Time Latitude Longitude Altitude Speed Heading
2026-05-06 11:37 -28.16628 153.51116 30 ft 0 kts 60°
2026-05-06 11:41 -28.16650 153.51164 29 ft 0 kts 60°
2026-05-06 11:49 -28.16661 153.51143 30 ft 4 kts 58°
2026-05-06 11:49 -28.16675 153.51116 29 ft 4 kts 63°
2026-05-06 11:50 -28.16684 153.51093 31 ft 3 kts 75°
2026-05-06 11:50 -28.16695 153.51072 29 ft 4 kts 17°
2026-05-06 11:50 -28.16720 153.51072 28 ft 4 kts 335°
2026-05-06 11:50 -28.16725 153.51075 28 ft 0 kts 330°
2026-05-06 11:52 -28.16715 153.51069 31 ft 2 kts 332°
2026-05-06 11:52 -28.16693 153.51055 28 ft 8 kts 331°
2026-05-06 11:52 -28.16631 153.51016 27 ft 10 kts 330°
2026-05-06 11:53 -28.16570 153.50976 29 ft 10 kts 330°
2026-05-06 11:53 -28.16503 153.50932 28 ft 13 kts 320°
2026-05-06 11:53 -28.16483 153.50820 30 ft 17 kts 308°
2026-05-06 11:53 -28.16364 153.50740 28 ft 23 kts 331°
2026-05-06 11:54 -28.16212 153.50643 26 ft 26 kts 330°
2026-05-06 11:54 -28.16056 153.50544 27 ft 25 kts 330°
2026-05-06 11:54 -28.15905 153.50448 29 ft 24 kts 330°
2026-05-06 11:54 -28.15763 153.50357 29 ft 23 kts 331°
2026-05-06 11:55 -28.15630 153.50273 28 ft 16 kts 328°
2026-05-06 11:55 -28.15615 153.50172 27 ft 13 kts 243°
2026-05-06 11:55 -28.15660 153.50094 28 ft 10 kts 211°
2026-05-06 11:55 -28.15719 153.50115 26 ft 10 kts 151°
2026-05-06 11:56 -28.15914 153.50239 27 ft 66 kts 151°
2026-05-06 11:56 -28.16493 153.50608 27 ft 122 kts 149°
2026-05-06 11:56 -28.17351 153.51130 276 ft 144 kts 154°
2026-05-06 11:56 -28.18220 153.51682 990 ft 143 kts 152°
2026-05-06 11:57 -28.19081 153.52234 1663 ft 142 kts 152°
2026-05-06 11:57 -28.19982 153.52777 2048 ft 156 kts 157°
2026-05-06 11:57 -28.21059 153.53263 2312 ft 178 kts 159°
2026-05-06 11:57 -28.22297 153.53783 2519 ft 202 kts 159°
2026-05-06 11:58 -28.23699 153.54367 2865 ft 227 kts 159°
2026-05-06 11:58 -28.25300 153.54747 3382 ft 246 kts 184°
2026-05-06 11:58 -28.26896 153.53969 4164 ft 261 kts 218°
2026-05-06 11:58 -28.28062 153.52342 5040 ft 271 kts 234°
2026-05-06 11:59 -28.29003 153.50456 5854 ft 281 kts 241°
2026-05-06 11:59 -28.29958 153.48412 6211 ft 304 kts 241°
2026-05-06 11:59 -28.31035 153.46236 6494 ft 328 kts 239°
2026-05-06 11:59 -28.32267 153.43948 6702 ft 351 kts 237°
2026-05-06 12:00 -28.33638 153.41588 7173 ft 363 kts 237°
2026-05-06 12:00 -28.35086 153.39214 7824 ft 368 kts 235°
2026-05-06 12:00 -28.36576 153.36835 8509 ft 371 kts 237°
2026-05-06 12:00 -28.38086 153.34446 9228 ft 374 kts 236°
2026-05-06 12:01 -28.39612 153.32030 9943 ft 378 kts 237°
2026-05-06 12:01 -28.41146 153.29589 10586 ft 382 kts 237°
2026-05-06 12:01 -28.42687 153.27121 11288 ft 384 kts 237°
2026-05-06 12:01 -28.44231 153.24635 11950 ft 386 kts 237°
2026-05-06 12:02 -28.45783 153.22131 12579 ft 389 kts 237°
2026-05-06 12:02 -28.47345 153.19607 13189 ft 392 kts 237°
2026-05-06 12:02 -28.48915 153.17065 13778 ft 394 kts 237°
2026-05-06 12:02 -28.50498 153.14504 14312 ft 397 kts 237°
2026-05-06 12:03 -28.52091 153.11926 14839 ft 400 kts 237°
2026-05-06 12:03 -28.53690 153.09338 15388 ft 401 kts 238°
2026-05-06 12:03 -28.55280 153.06764 15929 ft 403 kts 238°
2026-05-06 12:03 -28.56898 153.04145 16459 ft 406 kts 238°
2026-05-06 12:04 -28.58525 153.01507 16980 ft 408 kts 238°
2026-05-06 12:04 -28.60161 152.98857 17523 ft 411 kts 238°
2026-05-06 12:04 -28.61808 152.96188 18037 ft 413 kts 239°
2026-05-06 12:04 -28.63462 152.93500 18545 ft 415 kts 239°
2026-05-06 12:05 -28.65122 152.90797 18993 ft 418 kts 239°
2026-05-06 12:05 -28.66791 152.88077 19440 ft 421 kts 239°
2026-05-06 12:05 -28.68473 152.85339 19898 ft 422 kts 239°
2026-05-06 12:05 -28.70160 152.82590 20349 ft 424 kts 239°
2026-05-06 12:06 -28.71854 152.79827 20788 ft 426 kts 239°
2026-05-06 12:06 -28.73533 152.77088 21177 ft 428 kts 239°
2026-05-06 12:06 -28.75241 152.74299 21570 ft 430 kts 239°
2026-05-06 12:06 -28.76951 152.71505 21983 ft 431 kts 239°
2026-05-06 12:07 -28.78671 152.68695 22391 ft 433 kts 239°
2026-05-06 12:07 -28.80402 152.65868 22782 ft 435 kts 239°
2026-05-06 12:07 -28.82135 152.63035 23176 ft 436 kts 239°
2026-05-06 12:07 -28.84010 152.60296 23551 ft 442 kts 232°
2026-05-06 12:08 -28.86320 152.57935 23887 ft 451 kts 221°
2026-05-06 12:08 -28.89018 152.56067 24329 ft 456 kts 213°
2026-05-06 12:08 -28.91825 152.54408 24786 ft 454 kts 213°
2026-05-06 12:08 -28.94628 152.52751 25217 ft 452 kts 214°
2026-05-06 12:09 -28.97417 152.51099 25633 ft 451 kts 214°
2026-05-06 12:09 -29.00200 152.49446 26083 ft 450 kts 214°
2026-05-06 12:09 -29.02978 152.47789 26519 ft 449 kts 214°
2026-05-06 12:09 -29.05741 152.46139 26990 ft 448 kts 214°
2026-05-06 12:10 -29.08499 152.44491 27487 ft 446 kts 214°
2026-05-06 12:10 -29.11245 152.42851 27973 ft 445 kts 215°
2026-05-06 12:10 -29.13983 152.41217 28476 ft 443 kts 215°
2026-05-06 12:10 -29.16704 152.39589 28994 ft 441 kts 215°
2026-05-06 12:11 -29.19385 152.37984 29478 ft 440 kts 216°
2026-05-06 12:11 -29.22095 152.36361 29994 ft 438 kts 216°
2026-05-06 12:11 -29.24790 152.34747 30460 ft 437 kts 216°
2026-05-06 12:11 -29.27479 152.33138 30882 ft 435 kts 216°
2026-05-06 12:12 -29.30171 152.31527 31307 ft 434 kts 216°
2026-05-06 12:12 -29.32843 152.29926 31725 ft 433 kts 216°
2026-05-06 12:12 -29.35509 152.28326 32057 ft 433 kts 216°
2026-05-06 12:12 -29.38180 152.26722 32144 ft 437 kts 216°
2026-05-06 12:13 -29.43667 152.23397 32153 ft 452 kts 216°
2026-05-06 12:13 -29.49264 152.20024 32147 ft 455 kts 216°
2026-05-06 12:14 -29.54848 152.16686 32140 ft 455 kts 216°
2026-05-06 12:14 -29.60457 152.13313 32141 ft 455 kts 216°
2026-05-06 12:15 -29.66059 152.09929 32139 ft 455 kts 216°
2026-05-06 12:15 -29.71903 152.07005 32138 ft 469 kts 203°
2026-05-06 12:16 -29.78314 152.05313 32158 ft 472 kts 201°
2026-05-06 12:16 -29.84732 152.03670 32146 ft 472 kts 201°
2026-05-06 12:17 -29.91110 152.02011 32149 ft 472 kts 201°
2026-05-06 12:17 -29.97519 152.00327 32150 ft 472 kts 201°
2026-05-06 12:18 -30.03932 151.98641 32158 ft 472 kts 201°
2026-05-06 12:18 -30.09260 151.97239 32154 ft 473 kts 201°
2026-05-06 12:19 -30.15673 151.95554 32149 ft 473 kts 201°
2026-05-06 12:19 -30.22087 151.93870 32147 ft 473 kts 201°
2026-05-06 12:20 -30.28504 151.92178 32141 ft 473 kts 201°
2026-05-06 12:20 -30.34752 151.90049 32139 ft 462 kts 210°
2026-05-06 12:21 -30.40716 151.87276 32139 ft 462 kts 210°
2026-05-06 12:21 -30.46648 151.84516 32164 ft 462 kts 210°
2026-05-06 12:22 -30.52609 151.81735 32158 ft 461 kts 210°
2026-05-06 12:22 -30.58565 151.78962 32145 ft 461 kts 210°
2026-05-06 12:23 -30.64516 151.76182 32140 ft 461 kts 210°
2026-05-06 12:23 -30.70463 151.73398 32163 ft 460 kts 211°
2026-05-06 12:24 -30.76403 151.70617 32151 ft 459 kts 211°
2026-05-06 12:24 -30.82329 151.67843 32137 ft 459 kts 211°
2026-05-06 12:25 -30.88212 151.65083 32137 ft 459 kts 211°
2026-05-06 12:25 -30.94128 151.62298 32150 ft 458 kts 211°
2026-05-06 12:26 -31.00036 151.59511 32140 ft 458 kts 211°
2026-05-06 12:26 -31.05939 151.56732 32128 ft 457 kts 211°
2026-05-06 12:27 -31.11844 151.53945 32132 ft 457 kts 211°
2026-05-06 12:27 -31.17738 151.51158 32145 ft 457 kts 211°
2026-05-06 12:28 -31.23628 151.48371 32134 ft 456 kts 211°
2026-05-06 12:28 -31.29470 151.45604 32125 ft 456 kts 211°
2026-05-06 12:29 -31.35345 151.42812 32143 ft 456 kts 211°
2026-05-06 12:29 -31.41225 151.40033 32134 ft 456 kts 210°
2026-05-06 12:30 -31.47160 151.37380 32126 ft 457 kts 210°
2026-05-06 12:30 -31.53112 151.34772 32122 ft 457 kts 210°
2026-05-06 12:31 -31.59052 151.32139 32143 ft 456 kts 210°
2026-05-06 12:31 -31.64978 151.29481 32131 ft 456 kts 210°
2026-05-06 12:32 -31.70906 151.26817 32124 ft 456 kts 210°
2026-05-06 12:32 -31.76821 151.24155 32125 ft 455 kts 210°
2026-05-06 12:33 -31.82738 151.21491 32135 ft 455 kts 210°
2026-05-06 12:33 -31.88615 151.18834 32123 ft 455 kts 210°
2026-05-06 12:34 -31.94537 151.16164 32117 ft 456 kts 210°
2026-05-06 12:34 -32.00467 151.13507 32157 ft 456 kts 209°
2026-05-06 12:35 -32.06405 151.10851 32134 ft 457 kts 209°
2026-05-06 12:35 -32.12347 151.08184 32123 ft 457 kts 209°
2026-05-06 12:36 -32.18286 151.05511 32121 ft 457 kts 209°
2026-05-06 12:36 -32.24225 151.02832 32138 ft 457 kts 208°
2026-05-06 12:37 -32.30170 151.00149 32126 ft 457 kts 208°
2026-05-06 12:37 -32.36078 150.97484 32118 ft 458 kts 208°
2026-05-06 12:38 -32.42028 150.94790 32122 ft 458 kts 208°
2026-05-06 12:38 -32.48072 150.92345 32122 ft 467 kts 199°
2026-05-06 12:39 -32.51328 150.91863 32114 ft 477 kts 188°
2026-05-06 12:39 -32.54676 150.92070 32113 ft 487 kts 178°
2026-05-06 12:39 -32.61388 150.93284 32108 ft 488 kts 178°
2026-05-06 12:40 -32.68015 150.94476 31221 ft 482 kts 177°
2026-05-06 12:40 -32.71377 150.95064 30019 ft 493 kts 177°
2026-05-06 12:40 -32.74787 150.95657 28902 ft 497 kts 176°
2026-05-06 12:41 -32.78210 150.96257 27861 ft 498 kts 176°
2026-05-06 12:41 -32.81646 150.96862 26815 ft 499 kts 175°
2026-05-06 12:41 -32.85086 150.97472 25757 ft 500 kts 175°
2026-05-06 12:41 -32.88531 150.98086 24685 ft 501 kts 174°
2026-05-06 12:42 -32.91974 150.98703 23799 ft 495 kts 173°
2026-05-06 12:42 -32.95318 150.99310 22433 ft 479 kts 173°
2026-05-06 12:42 -32.98576 150.99901 20968 ft 468 kts 173°
2026-05-06 12:42 -33.01761 151.00475 19605 ft 458 kts 173°
2026-05-06 12:43 -33.04847 151.01028 18773 ft 438 kts 173°
2026-05-06 12:43 -33.07801 151.01556 17927 ft 421 kts 173°
2026-05-06 12:43 -33.10662 151.02069 17149 ft 415 kts 173°
2026-05-06 12:43 -33.13523 151.02579 16362 ft 416 kts 173°
2026-05-06 12:44 -33.16390 151.03087 15588 ft 416 kts 173°
2026-05-06 12:44 -33.19258 151.03597 14826 ft 417 kts 173°
2026-05-06 12:44 -33.22122 151.04110 14082 ft 416 kts 173°
2026-05-06 12:44 -33.24982 151.04625 13313 ft 415 kts 173°
2026-05-06 12:45 -33.27818 151.05150 12629 ft 410 kts 172°
2026-05-06 12:45 -33.30637 151.05690 12234 ft 412 kts 171°
2026-05-06 12:45 -33.35997 151.08085 12142 ft 417 kts 157°
2026-05-06 12:46 -33.38673 151.09425 12152 ft 417 kts 159°
2026-05-06 12:46 -33.41364 151.10659 11750 ft 411 kts 161°
2026-05-06 12:46 -33.44043 151.11817 11281 ft 409 kts 161°
2026-05-06 12:46 -33.46727 151.12953 11126 ft 409 kts 161°
2026-05-06 12:47 -33.49410 151.14098 11138 ft 409 kts 161°
2026-05-06 12:47 -33.52068 151.15252 10662 ft 404 kts 161°
2026-05-06 12:47 -33.54692 151.16414 9978 ft 400 kts 160°
2026-05-06 12:47 -33.57236 151.17559 9810 ft 381 kts 160°
2026-05-06 12:48 -33.59653 151.18651 9667 ft 363 kts 160°
2026-05-06 12:48 -33.61963 151.19695 9534 ft 348 kts 160°
2026-05-06 12:48 -33.64184 151.20696 9403 ft 335 kts 160°
2026-05-06 12:48 -33.66328 151.21662 9270 ft 323 kts 160°
2026-05-06 12:49 -33.68398 151.22593 9150 ft 312 kts 160°
2026-05-06 12:49 -33.70401 151.23485 9018 ft 302 kts 160°
2026-05-06 12:49 -33.72321 151.24337 8817 ft 295 kts 160°
2026-05-06 12:49 -33.74241 151.25187 8511 ft 293 kts 160°
2026-05-06 12:50 -33.76151 151.26036 8189 ft 292 kts 159°
2026-05-06 12:50 -33.78044 151.26879 7879 ft 291 kts 159°
2026-05-06 12:50 -33.79935 151.27719 7587 ft 290 kts 159°
2026-05-06 12:50 -33.81820 151.28556 7275 ft 288 kts 159°
2026-05-06 12:51 -33.83738 151.29241 6963 ft 287 kts 167°
2026-05-06 12:51 -33.85691 151.29750 6646 ft 287 kts 167°
2026-05-06 12:51 -33.87632 151.30255 6330 ft 286 kts 167°
2026-05-06 12:51 -33.89567 151.30758 6107 ft 283 kts 167°
2026-05-06 12:52 -33.91492 151.31260 6089 ft 284 kts 167°
2026-05-06 12:52 -33.93427 151.31762 6093 ft 285 kts 167°
2026-05-06 12:52 -33.95368 151.32266 6091 ft 285 kts 167°
2026-05-06 12:52 -33.97311 151.32774 6090 ft 286 kts 167°
2026-05-06 12:53 -33.99256 151.33283 6091 ft 286 kts 167°
2026-05-06 12:53 -34.01198 151.33791 6085 ft 284 kts 167°
2026-05-06 12:53 -34.03114 151.34290 5803 ft 280 kts 167°
2026-05-06 12:53 -34.04980 151.34779 5275 ft 277 kts 167°
2026-05-06 12:54 -34.06851 151.35269 4735 ft 274 kts 167°
2026-05-06 12:54 -34.08704 151.35754 4195 ft 271 kts 167°
2026-05-06 12:54 -34.10535 151.36233 3666 ft 268 kts 167°
2026-05-06 12:54 -34.12337 151.36695 3294 ft 258 kts 171°
2026-05-06 12:55 -34.14050 151.36546 3167 ft 243 kts 201°
2026-05-06 12:55 -34.15384 151.35404 3044 ft 233 kts 234°
2026-05-06 12:55 -34.16007 151.33666 2889 ft 223 kts 259°
2026-05-06 12:55 -34.16278 151.31845 2694 ft 218 kts 262°
2026-05-06 12:56 -34.16498 151.30056 2486 ft 213 kts 263°
2026-05-06 12:56 -34.16704 151.28308 2330 ft 207 kts 263°
2026-05-06 12:56 -34.16899 151.26612 2190 ft 200 kts 263°
2026-05-06 12:56 -34.16844 151.25000 2090 ft 190 kts 297°
2026-05-06 12:57 -34.15909 151.23982 2084 ft 185 kts 347°
2026-05-06 12:57 -34.14629 151.23911 2106 ft 186 kts 359°
2026-05-06 12:57 -34.13356 151.23648 2095 ft 186 kts 347°
2026-05-06 12:57 -34.12101 151.23302 2093 ft 188 kts 348°
2026-05-06 12:58 -34.10820 151.22961 2096 ft 188 kts 349°
2026-05-06 12:58 -34.09539 151.22626 2093 ft 188 kts 349°
2026-05-06 12:58 -34.08270 151.22294 2096 ft 181 kts 349°
2026-05-06 12:58 -34.07085 151.21985 1995 ft 170 kts 349°
2026-05-06 12:59 -34.05950 151.21689 1800 ft 161 kts 349°
2026-05-06 12:59 -34.04900 151.21416 1602 ft 150 kts 349°
2026-05-06 12:59 -34.03888 151.21152 1407 ft 148 kts 349°
2026-05-06 12:59 -34.02894 151.20894 1206 ft 146 kts 349°
2026-05-06 13:00 -34.01899 151.20635 1011 ft 147 kts 350°
2026-05-06 13:00 -34.00900 151.20380 814 ft 147 kts 349°
2026-05-06 13:00 -33.99899 151.20121 618 ft 147 kts 349°
2026-05-06 13:00 -33.98898 151.19852 408 ft 149 kts 347°
2026-05-06 13:01 -33.97887 151.19590 233 ft 149 kts 348°
2026-05-06 13:01 -33.96876 151.19327 36 ft 148 kts 348°
2026-05-06 13:01 -33.95987 151.19091 28 ft 108 kts 349°
2026-05-06 13:01 -33.95417 151.18947 26 ft 59 kts 348°
2026-05-06 13:02 -33.95177 151.18881 24 ft 22 kts 346°
2026-05-06 13:02 -33.95059 151.18814 24 ft 16 kts 294°
2026-05-06 13:02 -33.95068 151.18689 29 ft 15 kts 257°
2026-05-06 13:02 -33.95091 151.18563 30 ft 17 kts 258°
2026-05-06 13:03 -33.95117 151.18417 30 ft 19 kts 258°
2026-05-06 13:03 -33.95148 151.18249 30 ft 22 kts 257°
2026-05-06 13:03 -33.95168 151.18142 30 ft 1 kts 257°
2026-05-06 13:03 -33.95168 151.18140 30 ft 0 kts 257°
2026-05-06 13:08 -33.95169 151.18137 30 ft 2 kts 257°
2026-05-06 13:08 -33.95180 151.18073 30 ft 12 kts 257°
2026-05-06 13:09 -33.95170 151.17972 30 ft 14 kts 317°
2026-05-06 13:09 -33.95072 151.17936 30 ft 16 kts 348°
2026-05-06 13:09 -33.94956 151.17906 30 ft 18 kts 348°
2026-05-06 13:09 -33.94823 151.17871 30 ft 21 kts 348°
2026-05-06 13:10 -33.94727 151.17847 30 ft 19 kts 347°
2026-05-06 13:10 -33.94659 151.17829 30 ft 0 kts 348°
2026-05-06 13:10 -33.94631 151.17822 30 ft 10 kts 348°
2026-05-06 13:10 -33.94488 151.17782 30 ft 19 kts 346°
2026-05-06 13:11 -33.94401 151.17756 30 ft 20 kts 346°
2026-05-06 13:11 -33.94263 151.17714 29 ft 21 kts 345°
2026-05-06 13:11 -33.94118 151.17670 29 ft 22 kts 347°
2026-05-06 13:11 -33.93965 151.17627 29 ft 21 kts 347°
2026-05-06 13:12 -33.93872 151.17648 29 ft 13 kts 58°
2026-05-06 13:12 -33.93835 151.17748 30 ft 13 kts 40°
2026-05-06 13:12 -33.93747 151.17782 30 ft 13 kts 14°
2026-05-06 13:12 -33.93656 151.17809 30 ft 14 kts 13°
2026-05-06 13:13 -33.93561 151.17830 30 ft 14 kts
2026-05-06 13:13 -33.93495 151.17827 30 ft 6 kts 300°
2026-05-06 13:13 -33.93488 151.17790 30 ft 2 kts 280°
2026-05-06 13:13 -33.93486 151.17775 30 ft 1 kts 280°
2026-05-06 13:14 -33.93485 151.17771 30 ft 0 kts 280°